Regional Weather Roundup
Issued by NWS Upton, NY

Home | Current Version | Previous Version | Text Only | Print | Product List | Glossary On
Versions: 1 2 3 4 5 6 7 8 9 10 11 12 13 14 15 16 17 18 19 20 21 22 23 24 25 26 27 28 29 30 31 32 33 34 35 36 37 38 39 40 41 42 43 44 45 46 47 48 49 50
000
ASUS41 KOKX 230918
RWROKX

REGIONAL WEATHER ROUNDUP
NATIONAL WEATHER SERVICE NEW YORK NY
500 AM EDT SAT MAY 23 2015

NOTE: "FAIR" INDICATES FEW OR NO CLOUDS BELOW 12,000 FEET WITH NO
SIGNIFICANT WEATHER AND/OR OBSTRUCTIONS TO VISIBILITY.

NYZ071-072-176-178-NJZ106-104-231000-
NEW YORK CITY METRO AREA


CITY           SKY/WX    TMP DP  RH WIND       PRES   REMARKS
CENTRAL PARK   CLEAR     51  25  36 VRB6      30.32R
LAGUARDIA APRT CLEAR     52  28  39 NW15      30.29R
KENNEDY INTL   CLEAR     53  22  29 NW20      30.30R
NEWARK/LIBERTY CLEAR     50  25  37 NW10      30.31R
BRNX BOT. GARD   N/A     48  27  43 W12       30.31S
TETERBORO      CLEAR     49  25  39 NW10G18   30.30R
$$

NYZ177-179-078>081-231000-
LONG ISLAND NEW YORK

CITY           SKY/WX    TMP DP  RH WIND       PRES   REMARKS
FARMINGDALE    CLEAR     51  25  36 NW8       30.28R
ISLIP          CLEAR     50  27  40 NW12      30.25R
SHIRLEY        CLEAR     49  28  44 N10       30.27R
WESTHAMPTON    CLEAR     50  29  44 N10       30.27R
MONTAUK POINT    N/A     52  32  46 NW15G26   30.25R
$$

NYZ052-065-067-231000-
HUDSON VALLEY

CITY           SKY/WX    TMP DP  RH WIND       PRES   REMARKS
WHITE PLAINS   CLEAR     47  27  45 NW9       30.28R
NEWBURGH       NOT AVBL
MONTGOMERY     CLEAR     42  29  59 W6        30.31R
POUGHKEEPSIE   CLEAR     44  26  49 N3        30.30R
ALBANY         CLEAR     39  23  52 NW8       30.29R WCI  33
$$

NJZ001-105-106-008-010-013-015-019>022-104-231000-
NEW JERSEY

CITY           SKY/WX    TMP DP  RH WIND       PRES   REMARKS
NEWARK/LIBERTY CLEAR     50  25  37 NW10      30.31R
TETERBORO      CLEAR     49  25  39 NW10G18   30.30R
CALDWELL       CLEAR     47  25  42 NW6       30.32R
MORRISTOWN     CLEAR     46  28  49 NW3       30.32R
SOMERVILLE     CLEAR     43  29  57 NW3       30.30R
SUSSEX         CLEAR     43  26  51 CALM      30.33R
ANDOVER          N/A     42  28  57 VRB3      30.32R
TRENTON        CLEAR     48  27  44 N7        30.31R
MILLVILLE      CLEAR     44  37  76 W3        30.30R
ATLANTIC CITY  CLEAR     48  36  63 CALM      30.30R
WRIGHTSTOWN    CLEAR     45  33  62 N13       30.28R
TOMS RIVER     CLEAR    N/A N/A N/A N6        30.30R
BELMAR         CLEAR     48  27  43 NW10      30.29R
$$

PAZ047>061-062-071-231000-
EASTERN PENNSYLVANIA

CITY           SKY/WX    TMP DP  RH WIND       PRES   REMARKS
PHILADELPHIA   CLEAR     53  31  42 N9        30.30R
ALLENTOWN      CLEAR     47  27  45 N13       30.32R
SCRANTON       CLEAR     42  26  53 W3        30.34R
$$

CTZ002-004>006-009-010-012-RIZ004-006-007-MAZ004-011-015-231000-
SOUTHERN NEW ENGLAND
 IN CT

CITY           SKY/WX    TMP DP  RH WIND       PRES   REMARKS
BRADLEY INTL   PTCLDY    44  28  53 W8        30.26R
HARTFORD       CLEAR     47  27  45 VRB6      30.27R
DANBURY        CLEAR     43  29  57 NW6       30.31R
WTRBRY/OXFORD  CLEAR     43  27  52 CALM      30.30R
BRIDGEPORT     CLEAR     49  29  46 NW7       30.29R
MERIDEN        CLEAR     45  29  53 NW5       30.28R
NEW HAVEN      CLEAR     48  30  49 N6        30.29R
CHESTER        FAIR      45  30  57 W3        30.28R
GROTON         CLEAR     49  28  44 NW12      30.25R
WILLIMANTIC    CLEAR     46  29  51 VRB5      30.25R

 IN RI

CITY           SKY/WX    TMP DP  RH WIND       PRES   REMARKS
PROVIDENCE     MOCLDY    48  33  56 N10G16    30.23R
BLOCK ISLAND   CLEAR     50  28  43 NW14G24   30.24R
WESTERLY       CLEAR     48  28  46 W5        30.25R

 IN MA

CITY           SKY/WX    TMP DP  RH WIND       PRES   REMARKS
BOSTON         PTCLDY    45  27  49 NW15G22   30.22R
WORCESTER      CLEAR     40  28  62 NW9       30.21R WCI  34
WESTFIELD      CLEAR     42  28  57 W9        30.25R
PROVINCETOWN   CLEAR     48  34  57 NW18G26   30.18R
NANTUCKET      CLEAR     52  38  58 N16       30.16R
$$

ANZ330-335-338-340-345-350-353-355-231000-
COASTAL MARINE OBSERVATIONS


STATION/POSITION TIME  SKY/WX   TEMP    WIND        PRES    VSBY  WAVE
                                AIR SEA DIR/SP/G                  HT/PER
                 (UTC)          (F)     (DEG/KT/KT) (MB)    (MI)  (FT/S)
NY HARB ENTRANCE 0850            54 56  320/ 23/ 29 1024.3          4/ 4
4S FIRE IS       0803               54                N/A           2/ 3
20S FIRE ISLAND  0850            54 55  330/ 19/ 23 1024.3          3/ 5
GREAT SOUTH BAY  0800            55 63  300/ 17/ 21   N/A
23SW MTP         0850            53 52  320/ 17/ 21 1023.7          2/ 8
HUDSON CANYON    NOT AVBL
KINGS POINT      0800            53 53  350/  9/ 15 1024.6
CENTRAL LI SOUND 0730            53 51  310/ 16/ 19   N/A
EASTERN LI SOUND 0800            52     320/ 17/ 21   N/A
ROBBINS REEF     0800            53     320/ 13/ 17 1024.4
$$


>>>>>>>>>>>>>>>>>>>>>>>>>>>> KEY <<<<<<<<<<<<<<<<<<<<<<<<<<<
>                                                          <
>     SKY/WX - SKY CONDITION/PRESENT WEATHER               <
>     TMP    - TEMPERATURE IN FAHRENHEIT                   <
>     DP     - DEWPOINT IN FAHRENHEIT                      <
>     RH     - RELATIVE HUMIDITY IN PERCENT                <
>     WIND   - DIRECTION AND SPEED IN MPH                  <
>     PRES   - MEAN SEA LEVEL PRESSURE IN INCHES OF HG     <
>     WCI    - WIND CHILL INDEX                            <
>     VSB    - VISIBILITY IN MILES                         <
>     HX     - HEAT INDEX                                  <
>     TC     - TEMPERATURE IN CELSIUS                      <
>     VRB    - VARIABLE WIND DIRECTION                     <
>                                                          <
>>>>>>>>>>>>>>>>>>>>>>>>>>>> KEY <<<<<<<<<<<<<<<<<<<<<<<<<<<





USA.gov is the U.S. government's official web portal to all federal, state and local government web resources and services.